| time (UTC) | temp C | wind direction | speed KPH | gust KPH | rain 1hr cm | rain 24hr cm | rain mn cm | humidity % | barometer mb |
| 20260504203518 | 27 | 213 | 16.1 | 32.2 | 0.00 | 0.00 | 0.00 | 48 | 1007.4 |
| 20260504203014 | 27 | 155 | 14.5 | 25.7 | 0.00 | 0.00 | 0.00 | 49 | 1007.5 |
| 20260504202512 | 27 | 170 | 14.5 | 30.6 | 0.00 | 0.00 | 0.00 | 48 | 1007.6 |
| 20260504202011 | 26 | 223 | 16.1 | 30.6 | 0.00 | 0.00 | 0.00 | 47 | 1007.8 |
| 20260504201506 | 26 | 233 | 16.1 | 30.6 | 0.00 | 0.00 | 0.00 | 48 | 1007.8 |
| 20260504201002 | 26 | 146 | 14.5 | 30.6 | 0.00 | 0.00 | 0.00 | 47 | 1008.0 |
| 20260504200501 | 26 | 203 | 16.1 | 29.0 | 0.00 | 0.00 | 0.00 | 47 | 1008.1 |
| 20260504200214 | 26 | 241 | 16.1 | 32.2 | 0.00 | 0.00 | 0.00 | 47 | 1008.2 |
| 20260504195428 | 26 | 166 | 16.1 | 32.2 | 0.00 | 0.00 | 0.00 | 48 | 1008.3 |
| 20260504194924 | 26 | 216 | 16.1 | 29.0 | 0.00 | 0.00 | 0.00 | 48 | 1008.4 |
| 20260504194637 | 26 | 243 | 14.5 | 27.4 | 0.00 | 0.00 | 0.00 | 47 | 1008.4 |
| 20260504193857 | 26 | 147 | 12.9 | 27.4 | 0.00 | 0.00 | 0.00 | 46 | 1008.4 |
| 20260504193329 | 26 | 203 | 12.9 | 25.7 | 0.00 | 0.00 | 0.00 | 46 | 1008.5 |
| 20260504192827 | 26 | 242 | 12.9 | 25.7 | 0.00 | 0.00 | 0.00 | 47 | 1008.6 |
| 20260504192519 | 26 | 236 | 14.5 | 30.6 | 0.00 | 0.00 | 0.00 | 45 | 1008.7 |
| 20260504191755 | 26 | 259 | 14.5 | 30.6 | 0.00 | 0.00 | 0.00 | 46 | 1008.9 |
| 20260504191452 | 26 | 155 | 14.5 | 27.4 | 0.00 | 0.00 | 0.00 | 46 | 1009.0 |
| 20260504190705 | 26 | 133 | 12.9 | 27.4 | 0.00 | 0.00 | 0.00 | 46 | 1009.0 |
| 20260504190138 | 26 | 128 | 14.5 | 33.8 | 0.00 | 0.00 | 0.00 | 45 | 1009.0 |
| 20260504185613 | 26 | 214 | 16.1 | 33.8 | 0.00 | 0.00 | 0.00 | 47 | 1009.1 |
| 20260504185044 | 26 | 219 | 14.5 | 33.8 | 0.00 | 0.00 | 0.00 | 44 | 1009.1 |
| 20260504184541 | 26 | 263 | 12.9 | 29.0 | 0.00 | 0.00 | 0.00 | 44 | 1009.2 |
| 20260504184017 | 26 | 211 | 12.9 | 29.0 | 0.00 | 0.00 | 0.00 | 45 | 1009.3 |
| 20260504183512 | 26 | 229 | 12.9 | 30.6 | 0.00 | 0.00 | 0.00 | 44 | 1009.4 |
| 20260504183011 | 26 | 231 | 12.9 | 30.6 | 0.00 | 0.00 | 0.00 | 45 | 1009.5 |
| 20260504182706 | 25 | 131 | 14.5 | 25.7 | 0.00 | 0.00 | 0.00 | 43 | 1009.6 |
| 20260504181920 | 25 | 237 | 14.5 | 32.2 | 0.00 | 0.00 | 0.00 | 43 | 1009.8 |
| 20260504181350 | 25 | 165 | 14.5 | 32.2 | 0.00 | 0.00 | 0.00 | 43 | 1009.8 |
| 20260504180848 | 25 | 217 | 16.1 | 30.6 | 0.00 | 0.00 | 0.00 | 43 | 1009.8 |
| 20260504180320 | 25 | 222 | 17.7 | 35.4 | 0.00 | 0.00 | 0.00 | 42 | 1009.7 |
| 20260504175817 | 25 | 174 | 19.3 | 35.4 | 0.00 | 0.00 | 0.00 | 43 | 1009.7 |
| 20260504175314 | 25 | 217 | 19.3 | 33.8 | 0.00 | 0.00 | 0.00 | 43 | 1010.1 |
| 20260504174813 | 25 | 123 | 19.3 | 33.8 | 0.00 | 0.00 | 0.00 | 42 | 1010.2 |
| 20260504174247 | 25 | 150 | 17.7 | 32.2 | 0.00 | 0.00 | 0.00 | 42 | 1010.1 |
| 20260504173721 | 25 | 224 | 17.7 | 32.2 | 0.00 | 0.00 | 0.00 | 45 | 1010.3 |
| 20260504173155 | 25 | 226 | 16.1 | 40.2 | 0.00 | 0.00 | 0.00 | 44 | 1010.2 |
| 20260504172627 | 25 | 190 | 14.5 | 40.2 | 0.00 | 0.00 | 0.00 | 43 | 1010.2 |
| 20260504172123 | 25 | 252 | 14.5 | 30.6 | 0.00 | 0.00 | 0.00 | 44 | 1010.4 |
| 20260504171559 | 24 | 250 | 14.5 | 30.6 | 0.00 | 0.00 | 0.00 | 46 | 1010.6 |
| 20260504171045 | 24 | 221 | 12.9 | 27.4 | 0.00 | 0.00 | 0.00 | 47 | 1010.8 |
| 20260504170549 | 24 | 155 | 14.5 | 29.0 | 0.00 | 0.00 | 0.00 | 47 | 1010.7 |
| 20260504160204 | 22 | 251 | 16.1 | 40.2 | 0.00 | 0.00 | 0.00 | 52 | 1011.7 |
| 20260504160150 | 22 | 168 | 17.7 | 40.2 | 0.00 | 0.00 | 0.00 | 51 | 1011.9 |
| 20260504151144 | 21 | 147 | 14.5 | 32.2 | 0.00 | 0.00 | 0.00 | 58 | 1012.1 |
| 20260504150348 | 21 | 217 | 14.5 | 29.0 | 0.00 | 0.00 | 0.00 | 59 | 1011.9 |
| 20260504140620 | 19 | 219 | 14.5 | 30.6 | 0.00 | 0.00 | 0.00 | 63 | 1012.4 |
| 20260504140602 | 19 | 210 | 12.9 | 25.7 | 0.00 | 0.00 | 0.00 | 63 | 1012.4 |
| 20260504130450 | 17 | 127 | 8.0 | 22.5 | 0.00 | 0.00 | 0.00 | 68 | 1012.5 |
| 20260504130145 | 17 | 179 | 8.0 | 17.7 | 0.00 | 0.00 | 0.00 | 68 | 1012.5 |
| 20260504090124 | 17 | 230 | 8.0 | 19.3 | 0.00 | 0.00 | 0.00 | 62 | 1012.5 |
| 20260504081903 | 18 | 156 | 9.7 | 19.3 | 0.00 | 0.00 | 0.00 | 58 | 1012.6 |
| 20260504081601 | 18 | 271 | 9.7 | 24.1 | 0.00 | 0.00 | 0.00 | 58 | 1012.6 |
| 20260504080811 | 18 | 230 | 9.7 | 24.1 | 0.00 | 0.00 | 0.00 | 58 | 1012.6 |
| 20260504080309 | 18 | 250 | 9.7 | 20.9 | 0.00 | 0.00 | 0.00 | 57 | 1012.7 |
| 20260504050452 | 20 | 151 | 4.8 | 11.3 | 0.00 | 0.00 | 0.00 | 51 | 1014.5 |
| 20260504045949 | 20 | 155 | 4.8 | 11.3 | 0.00 | 0.00 | 0.00 | 51 | 1014.5 |
| 20260504045449 | 20 | 227 | 4.8 | 14.5 | 0.00 | 0.00 | 0.00 | 51 | 1014.6 |
| 20260504044924 | 20 | 132 | 4.8 | 14.5 | 0.00 | 0.00 | 0.00 | 50 | 1014.6 |
| 20260504044357 | 20 | 205 | 4.8 | 12.9 | 0.00 | 0.00 | 0.00 | 50 | 1014.6 |
| 20260504043853 | 20 | 271 | 4.8 | 12.9 | 0.00 | 0.00 | 0.00 | 50 | 1014.7 |
| 20260504043327 | 20 | 206 | 6.4 | 12.9 | 0.00 | 0.00 | 0.00 | 49 | 1014.6 |
| 20260504042825 | 20 | 250 | 6.4 | 16.1 | 0.00 | 0.00 | 0.00 | 49 | 1014.7 |
| 20260504042323 | 20 | 144 | 4.8 | 16.1 | 0.00 | 0.00 | 0.00 | 49 | 1014.7 |
| 20260504041822 | 20 | 217 | 4.8 | 11.3 | 0.00 | 0.00 | 0.00 | 49 | 1014.6 |
| 20260504041322 | 20 | 131 | 3.2 | 12.9 | 0.00 | 0.00 | 0.00 | 49 | 1014.7 |
| 20260504040823 | 20 | 211 | 4.8 | 12.9 | 0.00 | 0.00 | 0.00 | 49 | 1014.7 |
| 20260504040525 | 20 | 169 | 4.8 | 14.5 | 0.00 | 0.00 | 0.00 | 48 | 1014.7 |
| 20260504035733 | 20 | 210 | 4.8 | 14.5 | 0.00 | 0.00 | 0.00 | 48 | 1014.7 |
| 20260504035229 | 20 | 122 | 3.2 | 12.9 | 0.00 | 0.00 | 0.00 | 48 | 1014.7 |
| 20260504034730 | 20 | 181 | 4.8 | 12.9 | 0.00 | 0.00 | 0.00 | 48 | 1014.7 |
| 20260504034212 | 20 | 192 | 3.2 | 9.7 | 0.00 | 0.00 | 0.00 | 47 | 1014.7 |
| 20260504033716 | 20 | 133 | 1.6 | 8.0 | 0.00 | 0.00 | 0.00 | 47 | 1014.7 |
| 20260504033200 | 20 | 190 | 3.2 | 9.7 | 0.00 | 0.00 | 0.00 | 47 | 1014.7 |
| 20260504032701 | 20 | 158 | 3.2 | 9.7 | 0.00 | 0.00 | 0.00 | 46 | 1014.6 |
| 20260504032200 | 21 | 174 | 3.2 | 11.3 | 0.00 | 0.00 | 0.00 | 46 | 1014.6 |
| 20260504031702 | 21 | 235 | 3.2 | 11.3 | 0.00 | 0.00 | 0.00 | 46 | 1014.6 |
| 20260504031143 | 21 | 184 | 3.2 | 11.3 | 0.00 | 0.00 | 0.00 | 45 | 1014.5 |
| 20260504030631 | 21 | 226 | 3.2 | 9.7 | 0.00 | 0.00 | 0.00 | 45 | 1014.4 |
| 20260504030129 | 21 | 124 | 3.2 | 9.7 | 0.00 | 0.00 | 0.00 | 44 | 1014.4 |
| 20260504025840 | 21 | 210 | 3.2 | 9.7 | 0.00 | 0.00 | 0.00 | 45 | 1014.5 |
| 20260504025119 | 21 | 217 | 3.2 | 6.4 | 0.00 | 0.00 | 0.00 | 44 | 1014.4 |
| 20260504024611 | 21 | 159 | 3.2 | 9.7 | 0.00 | 0.00 | 0.00 | 44 | 1014.5 |
| 20260504024108 | 21 | 151 | 3.2 | 9.7 | 0.00 | 0.00 | 0.00 | 44 | 1014.5 |
| 20260504023605 | 21 | 191 | 3.2 | 9.7 | 0.00 | 0.00 | 0.00 | 43 | 1014.5 |
| 20260504023105 | 21 | 198 | 3.2 | 9.7 | 0.00 | 0.00 | 0.00 | 43 | 1014.5 |
| 20260504022815 | 21 | 251 | 3.2 | 11.3 | 0.00 | 0.00 | 0.00 | 43 | 1014.5 |
| 20260504022053 | 22 | 229 | 4.8 | 12.9 | 0.00 | 0.00 | 0.00 | 42 | 1014.5 |
| 20260504021554 | 22 | 134 | 6.4 | 12.9 | 0.00 | 0.00 | 0.00 | 41 | 1014.4 |
| 20260504021033 | 22 | 149 | 6.4 | 12.9 | 0.00 | 0.00 | 0.00 | 41 | 1014.4 |
| 20260504020512 | 22 | 210 | 6.4 | 16.1 | 0.00 | 0.00 | 0.00 | 41 | 1014.3 |
| 20260504020012 | 22 | 200 | 6.4 | 16.1 | 0.00 | 0.00 | 0.00 | 40 | 1014.3 |
| 20260504015735 | 22 | 186 | 6.4 | 14.5 | 0.00 | 0.00 | 0.00 | 40 | 1014.3 |
| 20260504015226 | 22 | 208 | 6.4 | 11.3 | 0.00 | 0.00 | 0.00 | 39 | 1014.3 |
| 20260504014447 | 22 | 123 | 6.4 | 14.5 | 0.00 | 0.00 | 0.00 | 38 | 1014.3 |
| 20260504014147 | 23 | 179 | 6.4 | 16.1 | 0.00 | 0.00 | 0.00 | 38 | 1014.3 |
| 20260504013618 | 23 | 240 | 6.4 | 16.1 | 0.00 | 0.00 | 0.00 | 38 | 1014.2 |
| 20260504012831 | 23 | 94 | 6.4 | 16.1 | 0.00 | 0.00 | 0.00 | 37 | 1014.1 |
| 20260504012331 | 23 | 207 | 8.0 | 16.1 | 0.00 | 0.00 | 0.00 | 37 | 1014.1 |
| 20260504011825 | 23 | 256 | 8.0 | 16.1 | 0.00 | 0.00 | 0.00 | 37 | 1014.1 |
| 20260504011446 | 23 | 163 | 6.4 | 16.1 | 0.00 | 0.00 | 0.00 | 36 | 1014.1 |
| 20260504011323 | 23 | 130 | 6.4 | 16.1 | 0.00 | 0.00 | 0.00 | 36 | 1014.1 |
| 20260504010211 | 23 | 163 | 6.4 | 14.5 | 0.00 | 0.00 | 0.00 | 35 | 1014.1 |
| 20260504005646 | 23 | 250 | 8.0 | 17.7 | 0.00 | 0.00 | 0.00 | 34 | 1014.0 |
| 20260504005123 | 24 | 141 | 8.0 | 17.7 | 0.00 | 0.00 | 0.00 | 34 | 1014.1 |
| 20260504004842 | 24 | 236 | 8.0 | 17.7 | 0.00 | 0.00 | 0.00 | 33 | 1014.1 |
| 20260504004120 | 24 | 219 | 9.7 | 17.7 | 0.00 | 0.00 | 0.00 | 32 | 1014.1 |
| 20260504003623 | 24 | 212 | 8.0 | 17.7 | 0.00 | 0.00 | 0.00 | 32 | 1014.1 |
| 20260504003120 | 25 | 229 | 8.0 | 16.1 | 0.00 | 0.00 | 0.00 | 31 | 1014.1 |
| 20260504002620 | 25 | 169 | 8.0 | 24.1 | 0.00 | 0.00 | 0.00 | 31 | 1014.1 |
| 20260504002057 | 25 | 225 | 11.3 | 24.1 | 0.00 | 0.00 | 0.00 | 31 | 1014.0 |
| 20260504001752 | 25 | 134 | 11.3 | 24.1 | 0.00 | 0.00 | 0.00 | 31 | 1014.1 |
| 20260504001005 | 25 | 210 | 9.7 | 24.1 | 0.00 | 0.00 | 0.00 | 31 | 1014.2 |
| 20260504000440 | 25 | 162 | 9.7 | 20.9 | 0.00 | 0.00 | 0.00 | 31 | 1014.2 |
| 20260503235935 | 26 | 205 | 9.7 | 20.9 | 0.00 | 0.00 | 0.00 | 31 | 1014.2 |
| 20260503235436 | 26 | 137 | 9.7 | 17.7 | 0.00 | 0.00 | 0.00 | 31 | 1014.2 |
| 20260503235146 | 26 | 214 | 9.7 | 24.1 | 0.00 | 0.00 | 0.00 | 30 | 1014.2 |
| 20260503234646 | 26 | 227 | 9.7 | 24.1 | 0.00 | 0.00 | 0.00 | 31 | 1014.3 |
| 20260503234357 | 26 | 229 | 9.7 | 27.4 | 0.00 | 0.00 | 0.00 | 31 | 1014.3 |
| 20260503233411 | 26 | 186 | 9.7 | 27.4 | 0.00 | 0.00 | 0.00 | 30 | 1014.4 |
| 20260503232909 | 26 | 180 | 8.0 | 20.9 | 0.00 | 0.00 | 0.00 | 31 | 1014.4 |
| 20260503232406 | 26 | 203 | 9.7 | 20.9 | 0.00 | 0.00 | 0.00 | 30 | 1014.4 |
| 20260503231842 | 26 | 238 | 11.3 | 24.1 | 0.00 | 0.00 | 0.00 | 31 | 1014.4 |
| 20260503231315 | 26 | 148 | 11.3 | 24.1 | 0.00 | 0.00 | 0.00 | 30 | 1014.4 |
| 20260503230746 | 26 | 236 | 11.3 | 20.9 | 0.00 | 0.00 | 0.00 | 30 | 1014.3 |
| 20260503230507 | 26 | 154 | 11.3 | 19.3 | 0.00 | 0.00 | 0.00 | 30 | 1014.5 |
| 20260503225716 | 27 | 210 | 9.7 | 19.3 | 0.00 | 0.00 | 0.00 | 31 | 1014.5 |
| 20260503225214 | 27 | 205 | 9.7 | 22.5 | 0.00 | 0.00 | 0.00 | 30 | 1014.5 |
| 20260503225133 | 27 | 207 | 8.0 | 22.5 | 0.00 | 0.00 | 0.00 | 28 | 1014.5 |
| 20260503224145 | 27 | 234 | 8.0 | 17.7 | 0.00 | 0.00 | 0.00 | 28 | 1014.5 |
| 20260503223635 | 27 | 149 | 8.0 | 16.1 | 0.00 | 0.00 | 0.00 | 29 | 1014.6 |
| 20260503223136 | 27 | 212 | 8.0 | 19.3 | 0.00 | 0.00 | 0.00 | 30 | 1014.7 |
| 20260503222621 | 27 | 164 | 8.0 | 19.3 | 0.00 | 0.00 | 0.00 | 27 | 1014.7 |
| 20260503222057 | 27 | 233 | 8.0 | 20.9 | 0.00 | 0.00 | 0.00 | 27 | 1014.9 |
| 20260503221747 | 27 | 247 | 8.0 | 20.9 | 0.00 | 0.00 | 0.00 | 27 | 1014.8 |
| 20260503221026 | 27 | 212 | 8.0 | 17.7 | 0.00 | 0.00 | 0.00 | 26 | 1014.9 |
| 20260503220524 | 27 | 259 | 9.7 | 19.3 | 0.00 | 0.00 | 0.00 | 27 | 1014.9 |
| 20260503215429 | 27 | 167 | 11.3 | 22.5 | 0.00 | 0.00 | 0.00 | 26 | 1015.0 |
| 20260503214928 | 27 | 240 | 11.3 | 22.5 | 0.00 | 0.00 | 0.00 | 28 | 1015.0 |
| 20260503214641 | 27 | 249 | 11.3 | 20.9 | 0.00 | 0.00 | 0.00 | 27 | 1015.1 |
| 20260503213919 | 27 | 161 | 9.7 | 19.3 | 0.00 | 0.00 | 0.00 | 30 | 1015.1 |
| 20260503213611 | 27 | 234 | 9.7 | 17.7 | 0.00 | 0.00 | 0.00 | 30 | 1015.2 |
| 20260503212849 | 27 | 212 | 9.7 | 24.1 | 0.00 | 0.00 | 0.00 | 27 | 1015.2 |
| 20260503212321 | 27 | 252 | 9.7 | 24.1 | 0.00 | 0.00 | 0.00 | 28 | 1015.3 |
| 20260503211820 | 27 | 212 | 8.0 | 17.7 | 0.00 | 0.00 | 0.00 | 28 | 1015.4 |
| 20260503211511 | 27 | 243 | 9.7 | 17.7 | 0.00 | 0.00 | 0.00 | 27 | 1015.5 |
| 20260503210748 | 27 | 238 | 9.7 | 16.1 | 0.00 | 0.00 | 0.00 | 27 | 1015.6 |
| 20260503210507 | 27 | 235 | 8.0 | 19.3 | 0.00 | 0.00 | 0.00 | 26 | 1015.8 |
| 20260503205743 | 27 | 253 | 9.7 | 17.7 | 0.00 | 0.00 | 0.00 | 29 | 1015.7 |
| 20260503205505 | 27 | 214 | 6.4 | 17.7 | 0.00 | 0.00 | 0.00 | 27 | 1015.8 |
| 20260503204716 | 27 | 200 | 6.4 | 20.9 | 0.00 | 0.00 | 0.00 | 26 | 1015.9 |
| 20260503204145 | 27 | 148 | 8.0 | 20.9 | 0.00 | 0.00 | 0.00 | 26 | 1016.1 |